OAL942 LGAV-LGAL

Flight info

Callsign OAL942
Flight time 0h 42m
Altitude 25000
Route KRO UG33 LMO
Aircraft B738/M-SDE2E3FGHIRWXY/LB1

Departure

Time 2026-04-21 19:44
Airport Athens Eleftherios Venizelos International Airport (LGAV)

Arrival

Time 2026-04-21 20:27
Airport Alexandroupoli Democritus Airport (LGAL)
Time Latitude Longitude Altitude Speed Heading
2026-04-21 19:22 37.93289 23.94537 298 ft 0 kts 307°
2026-04-21 19:29 37.93288 23.94537 298 ft 0 kts 307°
2026-04-21 19:30 37.93288 23.94538 299 ft 2 kts 308°
2026-04-21 19:30 37.93278 23.94553 301 ft 2 kts 306°
2026-04-21 19:31 37.93269 23.94568 303 ft 2 kts 307°
2026-04-21 19:31 37.93260 23.94583 305 ft 2 kts 306°
2026-04-21 19:31 37.93252 23.94597 306 ft 2 kts 306°
2026-04-21 19:31 37.93246 23.94614 307 ft 2 kts 276°
2026-04-21 19:32 37.93247 23.94633 308 ft 2 kts 250°
2026-04-21 19:32 37.93254 23.94649 310 ft 2 kts 227°
2026-04-21 19:32 37.93262 23.94658 312 ft 1 kts 207°
2026-04-21 19:32 37.93269 23.94658 313 ft 1 kts 158°
2026-04-21 19:33 37.93274 23.94655 314 ft 1 kts 128°
2026-04-21 19:33 37.93275 23.94640 313 ft 1 kts 58°
2026-04-21 19:33 37.93270 23.94635 312 ft 1 kts 37°
2026-04-21 19:33 37.93268 23.94633 312 ft 0 kts 39°
2026-04-21 19:36 37.93270 23.94635 312 ft 2 kts 38°
2026-04-21 19:36 37.93283 23.94655 316 ft 2 kts 54°
2026-04-21 19:36 37.93296 23.94680 320 ft 5 kts 50°
2026-04-21 19:36 37.93344 23.94730 325 ft 14 kts 34°
2026-04-21 19:37 37.93470 23.94847 325 ft 30 kts 39°
2026-04-21 19:37 37.93680 23.95040 297 ft 42 kts 38°
2026-04-21 19:37 37.93870 23.95273 272 ft 34 kts 89°
2026-04-21 19:37 37.93872 23.95489 272 ft 20 kts 35°
2026-04-21 19:38 37.93977 23.95593 277 ft 17 kts 37°
2026-04-21 19:38 37.94070 23.95677 278 ft 15 kts 34°
2026-04-21 19:38 37.94123 23.95725 280 ft 13 kts 36°
2026-04-21 19:38 37.94207 23.95804 282 ft 8 kts 38°
2026-04-21 19:39 37.94243 23.95841 284 ft 4 kts 39°
2026-04-21 19:39 37.94254 23.95852 284 ft 0 kts 39°
2026-04-21 19:39 37.94262 23.95860 285 ft 10 kts 39°
2026-04-21 19:39 37.94396 23.95986 289 ft 28 kts 37°
2026-04-21 19:40 37.94541 23.96127 295 ft 24 kts 37°
2026-04-21 19:40 37.94669 23.96248 298 ft 21 kts 37°
2026-04-21 19:40 37.94779 23.96353 301 ft 18 kts 37°
2026-04-21 19:40 37.94877 23.96447 303 ft 17 kts 36°
2026-04-21 19:41 37.94974 23.96537 306 ft 17 kts 36°
2026-04-21 19:41 37.95069 23.96625 309 ft 16 kts 36°
2026-04-21 19:41 37.95163 23.96718 315 ft 17 kts 37°
2026-04-21 19:41 37.95246 23.96797 320 ft 12 kts 37°
2026-04-21 19:42 37.95290 23.96861 322 ft 10 kts 84°
2026-04-21 19:42 37.95267 23.96931 321 ft 0 kts 122°
2026-04-21 19:43 37.95262 23.96940 321 ft 7 kts 122°
2026-04-21 19:43 37.95194 23.97011 320 ft 14 kts 187°
2026-04-21 19:43 37.95152 23.96988 318 ft 0 kts 210°
2026-04-21 19:43 37.95150 23.96987 318 ft 1 kts 210°
2026-04-21 19:44 37.95004 23.96857 311 ft 63 kts 217°
2026-04-21 19:44 37.94453 23.96321 296 ft 135 kts 216°
2026-04-21 19:44 37.93526 23.95437 301 ft 192 kts 218°
2026-04-21 19:44 37.92472 23.94433 1131 ft 191 kts 218°
2026-04-21 19:45 37.91394 23.93498 1982 ft 196 kts 208°
2026-04-21 19:45 37.90100 23.92798 2658 ft 211 kts 204°
2026-04-21 19:45 37.88723 23.92034 3313 ft 225 kts 208°
2026-04-21 19:45 37.87261 23.91087 3950 ft 245 kts 211°
2026-04-21 19:46 37.85743 23.90047 4875 ft 252 kts 211°
2026-04-21 19:46 37.84208 23.88991 5832 ft 257 kts 211°
2026-04-21 19:46 37.82632 23.87910 6760 ft 261 kts 212°
2026-04-21 19:46 37.81056 23.86834 7588 ft 261 kts 212°
2026-04-21 19:47 37.79406 23.85807 8188 ft 268 kts 204°
2026-04-21 19:47 37.77564 23.85347 8795 ft 277 kts 180°
2026-04-21 19:47 37.75692 23.85875 9427 ft 283 kts 158°
2026-04-21 19:47 37.73983 23.87208 9819 ft 298 kts 140°
2026-04-21 19:48 37.72586 23.89201 10221 ft 310 kts 123°
2026-04-21 19:48 37.71506 23.91606 10568 ft 324 kts 117°
2026-04-21 19:48 37.70639 23.94309 10827 ft 340 kts 100°
2026-04-21 19:48 37.70650 23.97307 11120 ft 351 kts 75°
2026-04-21 19:49 37.71663 24.00129 11376 ft 361 kts 51°
2026-04-21 19:49 37.73499 24.02315 11599 ft 371 kts 29°
2026-04-21 19:49 37.75834 24.03781 12108 ft 375 kts 21°
2026-04-21 19:49 37.78247 24.05073 12636 ft 381 kts 20°
2026-04-21 19:50 37.79893 24.05932 13065 ft 383 kts 19°
2026-04-21 19:50 37.83181 24.07646 13852 ft 389 kts 20°
2026-04-21 19:50 37.85685 24.08966 14473 ft 392 kts 20°
2026-04-21 19:50 37.88216 24.10314 15096 ft 396 kts 20°
2026-04-21 19:51 37.90734 24.11665 15692 ft 399 kts 20°
2026-04-21 19:51 37.93302 24.13050 16282 ft 402 kts 20°
2026-04-21 19:51 37.95881 24.14445 16883 ft 404 kts 20°
2026-04-21 19:51 37.98468 24.15845 17445 ft 407 kts 19°
2026-04-21 19:52 38.01062 24.17251 18004 ft 410 kts 19°
2026-04-21 19:52 38.03709 24.18685 18533 ft 413 kts 19°
2026-04-21 19:52 38.06352 24.20118 19040 ft 417 kts 19°
2026-04-21 19:52 38.09012 24.21560 19565 ft 420 kts 19°
2026-04-21 19:53 38.11697 24.23016 20056 ft 424 kts 19°
2026-04-21 19:53 38.14433 24.24501 20569 ft 426 kts 19°
2026-04-21 19:53 38.17151 24.25979 21105 ft 428 kts 19°
2026-04-21 19:53 38.19897 24.27473 21585 ft 431 kts 19°
2026-04-21 19:54 38.22638 24.28966 22056 ft 434 kts 19°
2026-04-21 19:54 38.25445 24.30496 22518 ft 436 kts 19°
2026-04-21 19:54 38.28242 24.32022 22934 ft 440 kts 19°
2026-04-21 19:54 38.31063 24.33562 23367 ft 443 kts 19°
2026-04-21 19:55 38.33876 24.35099 23831 ft 445 kts 19°
2026-04-21 19:55 38.36707 24.36650 24481 ft 442 kts 18°
2026-04-21 19:55 38.39519 24.38192 24901 ft 442 kts 18°
2026-04-21 19:55 38.42365 24.39752 24924 ft 442 kts 18°
2026-04-21 19:56 38.45176 24.41296 24921 ft 439 kts 18°
2026-04-21 19:56 38.47952 24.42822 24928 ft 438 kts 18°
2026-04-21 19:56 38.50748 24.44357 24922 ft 439 kts 18°
2026-04-21 19:56 38.53560 24.45902 24918 ft 438 kts 18°
2026-04-21 19:57 38.56388 24.47455 24917 ft 439 kts 18°
2026-04-21 19:57 38.59174 24.48986 24916 ft 439 kts 18°
2026-04-21 19:57 38.61960 24.50520 24911 ft 438 kts 18°
2026-04-21 19:57 38.64752 24.52060 24913 ft 438 kts 18°
2026-04-21 19:58 38.67560 24.53612 24916 ft 438 kts 18°
2026-04-21 19:58 38.70363 24.55163 24915 ft 439 kts 18°
2026-04-21 19:58 38.73181 24.56724 24914 ft 439 kts 18°
2026-04-21 19:58 38.75988 24.58280 24917 ft 438 kts 18°
2026-04-21 19:59 38.78750 24.59812 24913 ft 439 kts 18°
2026-04-21 19:59 38.81584 24.61384 24912 ft 438 kts 18°
2026-04-21 19:59 38.84353 24.62922 24911 ft 437 kts 18°
2026-04-21 19:59 38.87168 24.64485 24915 ft 439 kts 18°
2026-04-21 20:00 38.89979 24.66047 24914 ft 438 kts 19°
2026-04-21 20:00 38.92745 24.67585 24912 ft 438 kts 19°
2026-04-21 20:00 38.95547 24.69144 24917 ft 439 kts 19°
2026-04-21 20:00 38.98360 24.70713 24914 ft 439 kts 19°
2026-04-21 20:01 39.01131 24.72259 24911 ft 439 kts 19°
2026-04-21 20:01 39.03940 24.73828 24905 ft 439 kts 19°
2026-04-21 20:01 39.06724 24.75384 24915 ft 438 kts 19°
2026-04-21 20:01 39.09523 24.76950 24913 ft 439 kts 19°
2026-04-21 20:02 39.11390 24.77996 24908 ft 439 kts 19°
2026-04-21 20:02 39.15140 24.80098 24918 ft 439 kts 19°
2026-04-21 20:02 39.17915 24.81654 24913 ft 440 kts 19°
2026-04-21 20:02 39.20715 24.83225 24913 ft 440 kts 19°
2026-04-21 20:03 39.23530 24.84807 24915 ft 440 kts 19°
2026-04-21 20:03 39.26345 24.86391 24913 ft 439 kts 19°
2026-04-21 20:03 39.29116 24.87951 24917 ft 440 kts 19°
2026-04-21 20:03 39.31932 24.89538 24911 ft 439 kts 19°
2026-04-21 20:04 39.34743 24.91123 24916 ft 439 kts 19°
2026-04-21 20:04 39.37531 24.92696 24916 ft 439 kts 19°
2026-04-21 20:04 39.40337 24.94280 24916 ft 439 kts 19°
2026-04-21 20:04 39.43123 24.95853 24913 ft 439 kts 19°
2026-04-21 20:05 39.45924 24.97437 24917 ft 440 kts 19°
2026-04-21 20:05 39.48708 24.99013 24919 ft 440 kts 19°
2026-04-21 20:05 39.51540 25.00619 24915 ft 439 kts 19°
2026-04-21 20:05 39.54319 25.02195 24920 ft 440 kts 19°
2026-04-21 20:06 39.57133 25.03794 24916 ft 440 kts 19°
2026-04-21 20:06 39.59904 25.05368 24919 ft 440 kts 19°
2026-04-21 20:06 39.62736 25.06977 24924 ft 441 kts 19°
2026-04-21 20:06 39.65516 25.08559 24931 ft 441 kts 19°
2026-04-21 20:07 39.68350 25.10181 24932 ft 441 kts 19°
2026-04-21 20:07 39.71120 25.11766 24940 ft 440 kts 19°
2026-04-21 20:07 39.72984 25.12827 24935 ft 439 kts 19°
2026-04-21 20:07 39.76717 25.14954 24947 ft 441 kts 19°
2026-04-21 20:08 39.79549 25.16569 24943 ft 441 kts 19°
2026-04-21 20:08 39.82359 25.18170 24945 ft 442 kts 19°
2026-04-21 20:08 39.85178 25.19780 24718 ft 444 kts 19°
2026-04-21 20:08 39.88002 25.21394 23663 ft 444 kts 19°
2026-04-21 20:09 39.90771 25.22983 22776 ft 437 kts 19°
2026-04-21 20:09 39.93487 25.24667 22087 ft 426 kts 23°
2026-04-21 20:09 39.96042 25.26486 21479 ft 415 kts 25°
2026-04-21 20:09 39.98495 25.28361 20895 ft 404 kts 26°
2026-04-21 20:10 40.00853 25.30211 20327 ft 394 kts 26°
2026-04-21 20:10 40.03186 25.32047 19768 ft 383 kts 26°
2026-04-21 20:10 40.05444 25.33817 19223 ft 374 kts 26°
2026-04-21 20:10 40.07627 25.35517 18688 ft 368 kts 26°
2026-04-21 20:11 40.09858 25.37238 18154 ft 379 kts 26°
2026-04-21 20:11 40.12134 25.38984 17610 ft 377 kts 26°
2026-04-21 20:11 40.14378 25.40708 17039 ft 367 kts 26°
2026-04-21 20:11 40.16540 25.42369 16507 ft 358 kts 26°
2026-04-21 20:12 40.18652 25.43989 15998 ft 352 kts 26°
2026-04-21 20:12 40.20778 25.45606 15470 ft 361 kts 26°
2026-04-21 20:12 40.22230 25.46706 15107 ft 362 kts 26°
2026-04-21 20:12 40.25100 25.48893 14384 ft 351 kts 26°
2026-04-21 20:13 40.27164 25.50473 13854 ft 342 kts 26°
2026-04-21 20:13 40.29184 25.52023 13360 ft 338 kts 26°
2026-04-21 20:13 40.31261 25.53611 12847 ft 349 kts 26°
2026-04-21 20:13 40.33357 25.55212 12297 ft 347 kts 26°
2026-04-21 20:14 40.35400 25.56777 11775 ft 338 kts 26°
2026-04-21 20:14 40.37382 25.58302 11267 ft 329 kts 27°
2026-04-21 20:14 40.39362 25.59830 10787 ft 333 kts 27°
2026-04-21 20:14 40.41366 25.61373 10450 ft 330 kts 27°
2026-04-21 20:15 40.43281 25.62851 10291 ft 310 kts 27°
2026-04-21 20:15 40.45073 25.64242 10177 ft 291 kts 26°
2026-04-21 20:15 40.46772 25.65561 10001 ft 277 kts 27°
2026-04-21 20:15 40.48438 25.66844 9701 ft 285 kts 27°
2026-04-21 20:16 40.50162 25.68173 9310 ft 286 kts 27°
2026-04-21 20:16 40.51878 25.69508 8951 ft 285 kts 28°
2026-04-21 20:16 40.53553 25.70816 8606 ft 283 kts 28°
2026-04-21 20:16 40.55255 25.72142 8255 ft 282 kts 28°
2026-04-21 20:17 40.56925 25.73436 8002 ft 277 kts 28°
2026-04-21 20:17 40.58571 25.74712 8015 ft 277 kts 28°
2026-04-21 20:17 40.60250 25.76016 8008 ft 278 kts 28°
2026-04-21 20:17 40.61858 25.77260 8001 ft 262 kts 27°
2026-04-21 20:18 40.62880 25.78054 8017 ft 248 kts 27°
2026-04-21 20:18 40.64926 25.78680 7965 ft 212 kts 344°
2026-04-21 20:18 40.66175 25.77826 7577 ft 205 kts 308°
2026-04-21 20:18 40.67005 25.76318 7125 ft 207 kts 305°
2026-04-21 20:19 40.67969 25.74876 6622 ft 215 kts 314°
2026-04-21 20:19 40.69079 25.73533 6100 ft 222 kts 318°
2026-04-21 20:19 40.70268 25.72210 5673 ft 219 kts 321°
2026-04-21 20:19 40.71414 25.71038 5486 ft 202 kts 323°
2026-04-21 20:20 40.72536 25.69982 5140 ft 194 kts 326°
2026-04-21 20:20 40.73633 25.69055 4934 ft 181 kts 331°
2026-04-21 20:20 40.74686 25.68297 4771 ft 168 kts 334°
2026-04-21 20:20 40.75734 25.67631 4654 ft 167 kts 337°
2026-04-21 20:21 40.76803 25.67022 4475 ft 167 kts 340°
2026-04-21 20:21 40.77906 25.66567 4278 ft 164 kts 359°
2026-04-21 20:21 40.78954 25.66987 4134 ft 160 kts 37°
2026-04-21 20:21 40.79701 25.68065 3979 ft 161 kts 57°
2026-04-21 20:22 40.80107 25.69440 3819 ft 160 kts 74°
2026-04-21 20:22 40.80638 25.72250 3484 ft 152 kts 73°
2026-04-21 20:22 40.80902 25.73581 3342 ft 149 kts 72°
2026-04-21 20:23 40.81168 25.74912 3191 ft 150 kts 72°
2026-04-21 20:23 40.81435 25.76233 3042 ft 150 kts 72°
2026-04-21 20:23 40.81699 25.77544 3018 ft 147 kts 72°
2026-04-21 20:23 40.81951 25.78891 2790 ft 160 kts 76°
2026-04-21 20:24 40.82156 25.80337 2326 ft 154 kts 75°
2026-04-21 20:24 40.82342 25.81701 2032 ft 154 kts 82°
2026-04-21 20:24 40.82509 25.83050 1653 ft 145 kts 70°
2026-04-21 20:24 40.82834 25.84251 1411 ft 137 kts 66°
2026-04-21 20:25 40.83162 25.85443 1314 ft 138 kts 69°
2026-04-21 20:25 40.83472 25.86640 1193 ft 139 kts 67°
2026-04-21 20:25 40.83779 25.87845 1026 ft 140 kts 70°
2026-04-21 20:25 40.84067 25.89095 782 ft 142 kts 71°
2026-04-21 20:26 40.84344 25.90330 542 ft 141 kts 72°
2026-04-21 20:26 40.84627 25.91553 378 ft 141 kts 72°
2026-04-21 20:26 40.84929 25.92794 272 ft 141 kts 71°
2026-04-21 20:26 40.85208 25.94042 56 ft 144 kts 71°
2026-04-21 20:27 40.85470 25.95147 17 ft 93 kts 70°
2026-04-21 20:27 40.85599 25.95687 19 ft 31 kts 74°
2026-04-21 20:27 40.85615 25.95797 20 ft 7 kts 345°
2026-04-21 20:27 40.85582 25.95693 19 ft 16 kts 257°
2026-04-21 20:28 40.85554 25.95535 18 ft 20 kts 251°
2026-04-21 20:28 40.85500 25.95314 17 ft 31 kts 253°
2026-04-21 20:28 40.85439 25.95020 16 ft 29 kts 266°
2026-04-21 20:28 40.85513 25.94784 18 ft 26 kts 298°
2026-04-21 20:29 40.85518 25.94568 18 ft 22 kts 256°
2026-04-21 20:29 40.85565 25.94512 19 ft 5 kts 57°
2026-04-21 20:29 40.85568 25.94518 19 ft 0 kts 54°